Погода в Панкалпинанге

Индонезия     2°06′30″S   106°06′15″E
темп.,
°C
ветер,
м/с
пор.,
м/с
влажн.,
%
обл.,
%
осадки,
мм/ч
давл.,
гПа
погр.,
м
2 марта, вт
вт201:00+24ссз119270 0.0 101153
04:00+23ссз129593 0.0 100945
07:00+24ссз129088 0.0 1011112
10:00+32сз234884 0.0 10121180
13:00+34ссз334382 0.0 10101939
16:00+32с455275 0.0 10071331
19:00+26с268059 0.0 1009329
22:00+24с158968 0.0 1011198
3 марта, ср
ср301:00+24с168982 0.0 1010270
04:00+24с159190 0.0 1009227
07:00+25с278895 0.0 1011447
10:00+31ссв2456100 0.0 10121065
13:00+33ссв454564 0.0 10091561
16:00+31ссв455515 0.0 10071136
19:00+25с268533 0.0 1010317
22:00+24с149354 0.0 1012153
4 марта, чт
чт401:00+24ссз119676 0.0 101124
04:00+23ссз119826 0.0 101023
07:00+24зсз009215 0.0 101247
10:00+33с124914 0.0 10121192
13:00+36ссз223524 0.0 10101992
16:00+30св346129 0.5 1007789
19:00+25ссв148331 0.8 1009152
22:00+24св01916 0.4 101124
5 марта, пт
пт501:00+24сз019446 0.7 101124
04:00+23с119599 0.0 101024
07:00+25ссз119099 0.0 101162
10:00+31с1265100 1.0 1012815
13:00+30с227298 6.6 1009673
16:00+29с237588 4.5 1008760
19:00+25ссв149170 5.1 1009122
22:00+24с129595 0.0 101196
6 марта, сб
сб601:00+24ссз119898 0.0 101031
04:00+23ссз119999 0.0 100826
07:00+25с129497 0.0 1010111
10:00+32с235484 0.0 10111143
13:00+32ссв345878 0.6 10091162
16:00+30ссв35679 1.4 1007957
19:00+25с268615 1.4 1009271
22:00+24с169423 0.0 1011232